VLG794 LEPA-LEBL

Flight info

Callsign VLG794
Flight time 0h 32m
Altitude 14000
Route ESPOR L2 NEPAL
Aircraft A321/M-SDE3FGHIRWY/LB1

Departure

Time 2026-05-05 17:52
Airport Palma de Mallorca Airport (LEPA)

Arrival

Time 2026-05-05 18:25
Airport Josep Tarradellas Barcelona-El Prat Airport (LEBL)
Time Latitude Longitude Altitude Speed Heading
2026-05-05 17:27 39.54713 2.73659 38 ft 0 kts 56°
2026-05-05 17:34 39.54711 2.73656 37 ft 3 kts 57°
2026-05-05 17:34 39.54700 2.73627 38 ft 4 kts 78°
2026-05-05 17:35 39.54700 2.73594 38 ft 4 kts 118°
2026-05-05 17:35 39.54713 2.73576 35 ft 0 kts 149°
2026-05-05 17:38 39.54711 2.73577 35 ft 1 kts 149°
2026-05-05 17:39 39.54685 2.73597 37 ft 9 kts 149°
2026-05-05 17:39 39.54661 2.73666 38 ft 9 kts 70°
2026-05-05 17:39 39.54692 2.73744 38 ft 10 kts 60°
2026-05-05 17:39 39.54729 2.73824 38 ft 11 kts 58°
2026-05-05 17:40 39.54772 2.73909 38 ft 12 kts 57°
2026-05-05 17:40 39.54823 2.73993 38 ft 12 kts 28°
2026-05-05 17:40 39.54903 2.73964 38 ft 13 kts 347°
2026-05-05 17:40 39.54963 2.74012 38 ft 5 kts
2026-05-05 17:41 39.55001 2.73988 38 ft 7 kts 330°
2026-05-05 17:41 39.55043 2.73955 37 ft 8 kts 328°
2026-05-05 17:41 39.55096 2.73913 38 ft 10 kts 328°
2026-05-05 17:41 39.55158 2.73865 38 ft 11 kts 329°
2026-05-05 17:42 39.55229 2.73808 38 ft 13 kts 328°
2026-05-05 17:42 39.55312 2.73744 38 ft 15 kts 329°
2026-05-05 17:42 39.55403 2.73670 38 ft 16 kts 328°
2026-05-05 17:42 39.55506 2.73590 38 ft 18 kts 329°
2026-05-05 17:43 39.55606 2.73513 37 ft 10 kts 333°
2026-05-05 17:43 39.55669 2.73536 38 ft 11 kts 50°
2026-05-05 17:43 39.55712 2.73621 38 ft 12 kts 58°
2026-05-05 17:43 39.55755 2.73714 38 ft 12 kts 59°
2026-05-05 17:44 39.55803 2.73813 38 ft 13 kts 58°
2026-05-05 17:44 39.55854 2.73921 38 ft 14 kts 58°
2026-05-05 17:44 39.55908 2.74036 38 ft 15 kts 59°
2026-05-05 17:44 39.55964 2.74155 38 ft 11 kts 58°
2026-05-05 17:45 39.56000 2.74231 38 ft 9 kts 58°
2026-05-05 17:45 39.56034 2.74304 38 ft 10 kts 58°
2026-05-05 17:45 39.56073 2.74383 38 ft 11 kts 57°
2026-05-05 17:45 39.56078 2.74393 38 ft 0 kts 56°
2026-05-05 17:47 39.56081 2.74399 38 ft 2 kts 56°
2026-05-05 17:48 39.56090 2.74418 38 ft 3 kts 56°
2026-05-05 17:48 39.56111 2.74440 38 ft 4 kts 31°
2026-05-05 17:48 39.56115 2.74442 38 ft 0 kts 26°
2026-05-05 17:49 39.56118 2.74444 38 ft 1 kts 26°
2026-05-05 17:50 39.56128 2.74451 38 ft 2 kts 25°
2026-05-05 17:50 39.56145 2.74451 38 ft 3 kts 355°
2026-05-05 17:50 39.56175 2.74439 37 ft 9 kts 338°
2026-05-05 17:50 39.56234 2.74391 38 ft 10 kts 317°
2026-05-05 17:51 39.56249 2.74317 38 ft 8 kts 249°
2026-05-05 17:51 39.56248 2.74314 38 ft 0 kts 246°
2026-05-05 17:51 39.56217 2.74244 38 ft 33 kts 238°
2026-05-05 17:52 39.55974 2.73732 38 ft 97 kts 238°
2026-05-05 17:52 39.55530 2.72792 39 ft 145 kts 238°
2026-05-05 17:52 39.54951 2.71558 289 ft 161 kts 238°
2026-05-05 17:52 39.54382 2.70354 905 ft 159 kts 238°
2026-05-05 17:53 39.53771 2.69135 1417 ft 167 kts 236°
2026-05-05 17:53 39.53090 2.67794 1679 ft 188 kts 236°
2026-05-05 17:53 39.52332 2.66307 1892 ft 206 kts 237°
2026-05-05 17:53 39.51529 2.64735 2346 ft 211 kts 238°
2026-05-05 17:54 39.50717 2.63146 2962 ft 211 kts 238°
2026-05-05 17:54 39.49908 2.61563 3612 ft 211 kts 239°
2026-05-05 17:54 39.49099 2.59977 4230 ft 211 kts 239°
2026-05-05 17:54 39.48289 2.58390 4852 ft 211 kts 239°
2026-05-05 17:55 39.47476 2.56799 5422 ft 213 kts 239°
2026-05-05 17:55 39.46658 2.55195 6006 ft 215 kts 239°
2026-05-05 17:55 39.45832 2.53577 6580 ft 216 kts 239°
2026-05-05 17:55 39.45097 2.51875 7023 ft 222 kts 253°
2026-05-05 17:56 39.45030 2.49802 7191 ft 246 kts 283°
2026-05-05 17:56 39.45871 2.47795 7596 ft 265 kts 312°
2026-05-05 17:56 39.47382 2.46349 8234 ft 274 kts 322°
2026-05-05 17:56 39.48970 2.44957 8929 ft 278 kts 321°
2026-05-05 17:57 39.50574 2.43526 9617 ft 282 kts 320°
2026-05-05 17:57 39.52202 2.42063 10179 ft 291 kts 320°
2026-05-05 17:57 39.53929 2.40503 10325 ft 314 kts 321°
2026-05-05 17:57 39.55945 2.39161 10532 ft 339 kts 337°
2026-05-05 17:58 39.58207 2.38249 11038 ft 347 kts 338°
2026-05-05 17:58 39.60538 2.37314 11654 ft 352 kts 337°
2026-05-05 17:58 39.62898 2.36361 12222 ft 357 kts 337°
2026-05-05 17:58 39.65277 2.35397 12598 ft 359 kts 337°
2026-05-05 17:59 39.67673 2.34425 12989 ft 362 kts 337°
2026-05-05 17:59 39.70086 2.33444 13303 ft 365 kts 336°
2026-05-05 17:59 39.71699 2.32809 13469 ft 368 kts 340°
2026-05-05 17:59 39.75130 2.32381 13802 ft 379 kts 353°
2026-05-05 18:00 39.77773 2.32292 13885 ft 379 kts 353°
2026-05-05 18:00 39.80409 2.32217 13907 ft 378 kts 354°
2026-05-05 18:00 39.82183 2.32170 13903 ft 377 kts 354°
2026-05-05 18:00 39.84808 2.32100 13901 ft 377 kts 354°
2026-05-05 18:01 39.87429 2.32026 13901 ft 377 kts 354°
2026-05-05 18:01 39.90021 2.31951 13898 ft 377 kts 354°
2026-05-05 18:01 39.92648 2.31875 13893 ft 377 kts 353°
2026-05-05 18:01 39.95270 2.31798 13893 ft 377 kts 353°
2026-05-05 18:02 39.97896 2.31723 13893 ft 377 kts 354°
2026-05-05 18:02 40.00515 2.31648 13893 ft 377 kts 353°
2026-05-05 18:02 40.03134 2.31569 13899 ft 377 kts 354°
2026-05-05 18:02 40.05765 2.31491 13898 ft 377 kts 354°
2026-05-05 18:03 40.08387 2.31413 13898 ft 377 kts 354°
2026-05-05 18:03 40.11006 2.31338 13900 ft 377 kts 354°
2026-05-05 18:03 40.13628 2.31264 13900 ft 377 kts 354°
2026-05-05 18:03 40.16249 2.31189 13900 ft 377 kts 354°
2026-05-05 18:04 40.18873 2.31112 13903 ft 377 kts 354°
2026-05-05 18:04 40.21490 2.31032 13903 ft 377 kts 354°
2026-05-05 18:04 40.24113 2.30949 13918 ft 377 kts 354°
2026-05-05 18:04 40.26731 2.30866 13916 ft 377 kts 354°
2026-05-05 18:05 40.29358 2.30788 13917 ft 377 kts 354°
2026-05-05 18:05 40.31974 2.30712 13915 ft 377 kts 354°
2026-05-05 18:05 40.34598 2.30633 13913 ft 376 kts 354°
2026-05-05 18:05 40.37214 2.30555 13913 ft 376 kts 354°
2026-05-05 18:06 40.39804 2.30482 13909 ft 376 kts 354°
2026-05-05 18:06 40.41572 2.30432 13909 ft 376 kts 354°
2026-05-05 18:06 40.45043 2.30333 13909 ft 376 kts 354°
2026-05-05 18:06 40.47659 2.30257 13923 ft 376 kts 354°
2026-05-05 18:07 40.50282 2.30182 13919 ft 376 kts 354°
2026-05-05 18:07 40.52904 2.30105 13915 ft 376 kts 354°
2026-05-05 18:07 40.55520 2.30025 13897 ft 377 kts 354°
2026-05-05 18:07 40.58142 2.29944 13905 ft 377 kts 354°
2026-05-05 18:08 40.60762 2.29863 13903 ft 377 kts 354°
2026-05-05 18:08 40.63381 2.29783 13916 ft 377 kts 354°
2026-05-05 18:08 40.66007 2.29705 13899 ft 377 kts 354°
2026-05-05 18:08 40.68623 2.29628 13916 ft 376 kts 354°
2026-05-05 18:09 40.71207 2.29552 13916 ft 376 kts 354°
2026-05-05 18:09 40.73824 2.29474 13914 ft 376 kts 354°
2026-05-05 18:09 40.76444 2.29394 13913 ft 376 kts 354°
2026-05-05 18:09 40.79063 2.29314 13909 ft 376 kts 354°
2026-05-05 18:10 40.81648 2.29238 13682 ft 367 kts 354°
2026-05-05 18:10 40.84173 2.29168 13416 ft 358 kts 354°
2026-05-05 18:10 40.86637 2.29097 13151 ft 351 kts 354°
2026-05-05 18:10 40.89067 2.29023 12934 ft 347 kts 354°
2026-05-05 18:11 40.91454 2.28950 12642 ft 340 kts 354°
2026-05-05 18:11 40.93809 2.28890 12274 ft 337 kts 357°
2026-05-05 18:11 40.96105 2.29293 12176 ft 328 kts
2026-05-05 18:11 40.98306 2.29819 12101 ft 316 kts
2026-05-05 18:12 41.00483 2.30333 12015 ft 319 kts
2026-05-05 18:12 41.02667 2.30844 11665 ft 317 kts
2026-05-05 18:12 41.04833 2.31352 11342 ft 314 kts
2026-05-05 18:12 41.07002 2.31861 10745 ft 321 kts
2026-05-05 18:13 41.09163 2.32376 10598 ft 311 kts
2026-05-05 18:13 41.11246 2.32875 10318 ft 306 kts
2026-05-05 18:13 41.13335 2.33373 10013 ft 302 kts
2026-05-05 18:13 41.15396 2.33866 9670 ft 299 kts
2026-05-05 18:14 41.17431 2.34353 9116 ft 296 kts
2026-05-05 18:14 41.19450 2.34835 8570 ft 293 kts
2026-05-05 18:14 41.21447 2.35308 8025 ft 290 kts
2026-05-05 18:14 41.23374 2.35976 7485 ft 290 kts 24°
2026-05-05 18:15 41.24964 2.37643 6972 ft 290 kts 52°
2026-05-05 18:15 41.25988 2.39899 6716 ft 288 kts 61°
2026-05-05 18:15 41.26893 2.42217 6464 ft 277 kts 62°
2026-05-05 18:15 41.27763 2.44491 6213 ft 275 kts 62°
2026-05-05 18:16 41.28627 2.46752 5958 ft 273 kts 62°
2026-05-05 18:16 41.29487 2.48999 5702 ft 273 kts 62°
2026-05-05 18:16 41.30510 2.51073 5445 ft 265 kts 41°
2026-05-05 18:16 41.32048 2.52250 5238 ft 251 kts
2026-05-05 18:17 41.33732 2.52286 4985 ft 240 kts 346°
2026-05-05 18:17 41.35355 2.51814 4728 ft 238 kts 342°
2026-05-05 18:17 41.36954 2.51276 4482 ft 236 kts 340°
2026-05-05 18:17 41.38344 2.50282 4229 ft 227 kts 311°
2026-05-05 18:18 41.39078 2.48484 4074 ft 223 kts 278°
2026-05-05 18:18 41.39166 2.46465 3952 ft 213 kts 269°
2026-05-05 18:18 41.39119 2.44536 3788 ft 205 kts 267°
2026-05-05 18:18 41.39052 2.42648 3637 ft 203 kts 267°
2026-05-05 18:19 41.38982 2.40773 3493 ft 202 kts 267°
2026-05-05 18:19 41.38911 2.38912 3390 ft 201 kts 267°
2026-05-05 18:19 41.38838 2.37043 3293 ft 202 kts 267°
2026-05-05 18:19 41.38765 2.35175 3196 ft 201 kts 266°
2026-05-05 18:20 41.38415 2.33383 3101 ft 201 kts 248°
2026-05-05 18:20 41.37855 2.31739 3022 ft 187 kts 247°
2026-05-05 18:20 41.37337 2.30234 2988 ft 170 kts 246°
2026-05-05 18:20 41.36864 2.28845 2932 ft 163 kts 248°
2026-05-05 18:21 41.36404 2.27491 2775 ft 159 kts 248°
2026-05-05 18:21 41.35949 2.26153 2570 ft 160 kts 247°
2026-05-05 18:21 41.35496 2.24819 2380 ft 159 kts 248°
2026-05-05 18:21 41.35041 2.23483 2169 ft 158 kts 248°
2026-05-05 18:22 41.34585 2.22141 1955 ft 158 kts 247°
2026-05-05 18:22 41.34133 2.20815 1748 ft 158 kts 247°
2026-05-05 18:22 41.33681 2.19488 1543 ft 157 kts 247°
2026-05-05 18:22 41.33230 2.18165 1318 ft 157 kts 247°
2026-05-05 18:23 41.32790 2.16874 1117 ft 153 kts 246°
2026-05-05 18:23 41.32358 2.15608 914 ft 149 kts 247°
2026-05-05 18:23 41.31939 2.14365 727 ft 147 kts 248°
2026-05-05 18:23 41.31524 2.13117 491 ft 150 kts 248°
2026-05-05 18:24 41.31095 2.11887 303 ft 148 kts 246°
2026-05-05 18:24 41.30667 2.10646 105 ft 147 kts 247°
2026-05-05 18:24 41.30257 2.09445 16 ft 126 kts 245°
2026-05-05 18:24 41.29976 2.08632 21 ft 63 kts 245°
2026-05-05 18:25 41.29916 2.08464 19 ft 9 kts 240°
2026-05-05 18:25 41.29882 2.08397 20 ft 17 kts 232°
2026-05-05 18:25 41.29766 2.08249 18 ft 0 kts 214°
2026-05-05 18:27 41.29764 2.08247 18 ft 2 kts 214°
2026-05-05 18:27 41.29734 2.08220 19 ft 9 kts 214°
2026-05-05 18:27 41.29672 2.08194 18 ft 10 kts 188°
2026-05-05 18:28 41.29595 2.08069 18 ft 11 kts 243°
2026-05-05 18:28 41.29559 2.07964 18 ft 13 kts 247°
2026-05-05 18:28 41.29521 2.07848 18 ft 15 kts 246°
2026-05-05 18:29 41.29471 2.07716 18 ft 17 kts 243°
2026-05-05 18:29 41.29418 2.07565 20 ft 16 kts 244°
2026-05-05 18:29 41.29349 2.07551 21 ft 11 kts 156°
2026-05-05 18:29 41.29273 2.07597 20 ft 13 kts 155°
2026-05-05 18:30 41.29188 2.07650 18 ft 14 kts 153°
2026-05-05 18:30 41.29174 2.07667 18 ft 3 kts 131°
2026-05-05 18:30 41.29165 2.07704 18 ft 7 kts 97°
2026-05-05 18:30 41.29154 2.07762 19 ft 7 kts 138°
2026-05-05 18:31 41.29121 2.07786 18 ft 3 kts 151°
2026-05-05 18:31 41.29106 2.07796 18 ft 1 kts 154°
2026-05-05 18:31 41.29099 2.07801 18 ft 0 kts 154°
2026-05-05 18:31 41.29095 2.07804 18 ft 0 kts 154°